Terug naar catalogus

STARLINK-6259

ActiefCommunicatieVLEO
NORAD 57089·PAYLOAD·🇺🇸 United States

Gelanceerd Jun 22, 2023 vanaf Vandenberg Space Force Base

Loading…

Volgende Passages (komende 24 uur)

TLE

VersSource: CelesTrak SupGP

Epoch: Sep 14, 2026, 21:08 UTC

1 57089C 23088AT  26257.88104167 -.00004554  00000+0 -16500-3 0  2578
2 57089  42.9997 107.5608 0001415 266.4139 178.2191 15.27565789    15

Volg STARLINK-6259 in realtime met AllMySat

Download on the App Store